Year,Month,Day,Hour,Minute,Value (Times are PST for temperature in C)
2016,03,29,00,00,5.80
2016,03,29,00,01,5.80
2016,03,29,00,02,5.80
2016,03,29,00,03,5.80
2016,03,29,00,04,5.80
2016,03,29,00,05,5.80
2016,03,29,00,06,5.80
2016,03,29,00,07,5.70
2016,03,29,00,08,5.70
2016,03,29,00,09,5.70
2016,03,29,00,10,5.70
2016,03,29,00,11,5.70
2016,03,29,00,12,5.60
2016,03,29,00,13,5.60
2016,03,29,00,14,5.60
2016,03,29,00,15,5.60
2016,03,29,00,16,5.60
2016,03,29,00,17,5.60
2016,03,29,00,18,5.60
2016,03,29,00,19,5.60
2016,03,29,00,20,5.50
2016,03,29,00,21,5.50
2016,03,29,00,22,5.40
2016,03,29,00,23,5.40
2016,03,29,00,24,5.40
2016,03,29,00,25,5.30
2016,03,29,00,26,5.30
2016,03,29,00,27,5.20
2016,03,29,00,28,5.20
2016,03,29,00,29,5.20
2016,03,29,00,30,5.10
2016,03,29,00,31,5.10
2016,03,29,00,32,5.10
2016,03,29,00,33,5.00
2016,03,29,00,34,5.00
2016,03,29,00,35,4.90
2016,03,29,00,36,4.90
2016,03,29,00,37,4.90
2016,03,29,00,38,4.80
2016,03,29,00,39,4.80
2016,03,29,00,40,4.80
2016,03,29,00,41,4.80
2016,03,29,00,42,4.80
2016,03,29,00,43,4.70
2016,03,29,00,44,4.70
2016,03,29,00,45,4.70
2016,03,29,00,46,4.70
2016,03,29,00,47,4.70
2016,03,29,00,48,4.60
2016,03,29,00,49,4.60
2016,03,29,00,50,4.60
2016,03,29,00,51,4.60
2016,03,29,00,52,4.60
2016,03,29,00,53,4.60
2016,03,29,00,54,4.50
2016,03,29,00,55,4.50
2016,03,29,00,56,4.50
2016,03,29,00,57,4.50
2016,03,29,00,58,4.50
2016,03,29,00,59,4.50
2016,03,29,01,00,4.50
2016,03,29,01,01,4.50
2016,03,29,01,02,4.60
2016,03,29,01,03,4.60
2016,03,29,01,04,4.60
2016,03,29,01,05,4.60
2016,03,29,01,06,4.70
2016,03,29,01,07,4.70
2016,03,29,01,08,4.70
2016,03,29,01,09,4.80
2016,03,29,01,10,4.80
2016,03,29,01,11,4.80
2016,03,29,01,12,4.80
2016,03,29,01,13,4.80
2016,03,29,01,14,4.80
2016,03,29,01,15,4.80
2016,03,29,01,16,4.80
2016,03,29,01,17,4.90
2016,03,29,01,18,4.90
2016,03,29,01,19,4.90
2016,03,29,01,20,4.90
2016,03,29,01,21,4.90
2016,03,29,01,22,5.00
2016,03,29,01,23,5.00
2016,03,29,01,24,5.00
2016,03,29,01,25,5.10
2016,03,29,01,26,5.10
2016,03,29,01,27,5.00
2016,03,29,01,28,5.00
2016,03,29,01,29,4.90
2016,03,29,01,30,4.90
2016,03,29,01,31,4.90
2016,03,29,01,32,4.80
2016,03,29,01,33,4.80
2016,03,29,01,34,4.80
2016,03,29,01,35,4.80
2016,03,29,01,36,4.80
2016,03,29,01,37,4.70
2016,03,29,01,38,4.70
2016,03,29,01,39,4.70
2016,03,29,01,40,4.60
2016,03,29,01,41,4.60
2016,03,29,01,42,4.60
2016,03,29,01,43,4.60
2016,03,29,01,44,4.60
2016,03,29,01,45,4.50
2016,03,29,01,46,4.50
2016,03,29,01,47,4.50
2016,03,29,01,48,4.50
2016,03,29,01,49,4.50
2016,03,29,01,50,4.40
2016,03,29,01,51,4.40
2016,03,29,01,52,4.40
2016,03,29,01,53,4.40
2016,03,29,01,54,4.40
2016,03,29,01,55,4.30
2016,03,29,01,56,4.30
2016,03,29,01,57,4.30
2016,03,29,01,58,4.30
2016,03,29,01,59,4.30
2016,03,29,02,00,4.30
2016,03,29,02,01,4.30
2016,03,29,02,02,4.30
2016,03,29,02,03,4.30
2016,03,29,02,04,4.30
2016,03,29,02,05,4.30
2016,03,29,02,06,4.30
2016,03,29,02,07,4.30
2016,03,29,02,08,4.30
2016,03,29,02,09,4.30
2016,03,29,02,10,4.30
2016,03,29,02,11,4.30
2016,03,29,02,12,4.40
2016,03,29,02,13,4.30
2016,03,29,02,14,4.40
2016,03,29,02,15,4.40
2016,03,29,02,16,4.30
2016,03,29,02,17,4.30
2016,03,29,02,18,4.30
2016,03,29,02,19,4.40
2016,03,29,02,20,4.40
2016,03,29,02,21,4.40
2016,03,29,02,22,4.40
2016,03,29,02,23,4.50
2016,03,29,02,24,4.50
2016,03,29,02,25,4.50
2016,03,29,02,26,4.50
2016,03,29,02,27,4.60
2016,03,29,02,28,4.60
2016,03,29,02,29,4.60
2016,03,29,02,30,4.60
2016,03,29,02,31,4.60
2016,03,29,02,32,4.70
2016,03,29,02,33,4.70
2016,03,29,02,34,4.70
2016,03,29,02,35,4.70
2016,03,29,02,36,4.70
2016,03,29,02,37,4.70
2016,03,29,02,38,4.70
2016,03,29,02,39,4.70
2016,03,29,02,40,4.70
2016,03,29,02,41,4.70
2016,03,29,02,42,4.70
2016,03,29,02,43,4.70
2016,03,29,02,44,4.70
2016,03,29,02,45,4.70
2016,03,29,02,46,4.60
2016,03,29,02,47,4.60
2016,03,29,02,48,4.60
2016,03,29,02,49,4.60
2016,03,29,02,50,4.60
2016,03,29,02,51,4.60
2016,03,29,02,52,4.50
2016,03,29,02,53,4.50
2016,03,29,02,54,4.50
2016,03,29,02,55,4.40
2016,03,29,02,56,4.40
2016,03,29,02,57,4.40
2016,03,29,02,58,4.40
2016,03,29,02,59,4.30
2016,03,29,03,00,4.30
2016,03,29,03,01,4.30
2016,03,29,03,02,4.30
2016,03,29,03,03,4.30
2016,03,29,03,04,4.30
2016,03,29,03,05,4.20
2016,03,29,03,06,4.20
2016,03,29,03,07,4.20
2016,03,29,03,08,4.20
2016,03,29,03,09,4.20
2016,03,29,03,10,4.20
2016,03,29,03,11,4.20
2016,03,29,03,12,4.20
2016,03,29,03,13,4.20
2016,03,29,03,14,4.20
2016,03,29,03,15,4.20
2016,03,29,03,16,4.20
2016,03,29,03,17,4.20
2016,03,29,03,18,4.20
2016,03,29,03,19,4.20
2016,03,29,03,20,4.20
2016,03,29,03,21,4.20
2016,03,29,03,22,4.20
2016,03,29,03,23,4.20
2016,03,29,03,24,4.20
2016,03,29,03,25,4.20
2016,03,29,03,26,4.20
2016,03,29,03,27,4.20
2016,03,29,03,28,4.20
2016,03,29,03,29,4.20
2016,03,29,03,30,4.20
2016,03,29,03,31,4.20
2016,03,29,03,32,4.20
2016,03,29,03,33,4.20
2016,03,29,03,34,4.20
2016,03,29,03,35,4.20
2016,03,29,03,36,4.20
2016,03,29,03,37,4.20
2016,03,29,03,38,4.20
2016,03,29,03,39,4.20
2016,03,29,03,40,4.20
2016,03,29,03,41,4.20
2016,03,29,03,42,4.20
2016,03,29,03,43,4.20
2016,03,29,03,44,4.20
2016,03,29,03,45,4.20
2016,03,29,03,46,4.20
2016,03,29,03,47,4.20
2016,03,29,03,48,4.20
2016,03,29,03,49,4.20
2016,03,29,03,50,4.20
2016,03,29,03,51,4.20
2016,03,29,03,52,4.20
2016,03,29,03,53,4.20
2016,03,29,03,54,4.20
2016,03,29,03,55,4.20
2016,03,29,03,56,4.20
2016,03,29,03,57,4.20
2016,03,29,03,58,4.20
2016,03,29,03,59,4.20
2016,03,29,04,00,4.20
2016,03,29,04,01,4.20
2016,03,29,04,02,4.10
2016,03,29,04,03,4.10
2016,03,29,04,04,4.10
2016,03,29,04,05,4.10
2016,03,29,04,06,4.00
2016,03,29,04,07,4.00
2016,03,29,04,08,4.00
2016,03,29,04,09,3.90
2016,03,29,04,10,3.90
2016,03,29,04,11,3.90
2016,03,29,04,12,3.90
2016,03,29,04,13,3.80
2016,03,29,04,14,3.80
2016,03,29,04,15,3.80
2016,03,29,04,16,3.80
2016,03,29,04,17,3.70
2016,03,29,04,18,3.70
2016,03,29,04,19,3.70
2016,03,29,04,20,3.70
2016,03,29,04,21,3.70
2016,03,29,04,22,3.70
2016,03,29,04,23,3.70
2016,03,29,04,24,3.60
2016,03,29,04,25,3.60
2016,03,29,04,26,3.60
2016,03,29,04,27,3.60
2016,03,29,04,28,3.60
2016,03,29,04,29,3.70
2016,03,29,04,30,3.70
2016,03,29,04,31,3.70
2016,03,29,04,32,3.70
2016,03,29,04,33,3.70
2016,03,29,04,34,3.70
2016,03,29,04,35,3.70
2016,03,29,04,36,3.70
2016,03,29,04,37,3.70
2016,03,29,04,38,3.70
2016,03,29,04,39,3.70
2016,03,29,04,40,3.70
2016,03,29,04,41,3.60
2016,03,29,04,42,3.60
2016,03,29,04,43,3.60
2016,03,29,04,44,3.60
2016,03,29,04,45,3.60
2016,03,29,04,46,3.60
2016,03,29,04,47,3.60
2016,03,29,04,48,3.60
2016,03,29,04,49,3.50
2016,03,29,04,50,3.50
2016,03,29,04,51,3.50
2016,03,29,04,52,3.40
2016,03,29,04,53,3.40
2016,03,29,04,54,3.50
2016,03,29,04,55,3.50
2016,03,29,04,56,3.50
2016,03,29,04,57,3.50
2016,03,29,04,58,3.60
2016,03,29,04,59,3.60
2016,03,29,05,00,3.60
2016,03,29,05,01,3.60
2016,03,29,05,02,3.60
2016,03,29,05,03,3.60
2016,03,29,05,04,3.60
2016,03,29,05,05,3.60
2016,03,29,05,06,3.60
2016,03,29,05,07,3.60
2016,03,29,05,08,3.60
2016,03,29,05,09,3.60
2016,03,29,05,10,3.60
2016,03,29,05,11,3.60
2016,03,29,05,12,3.60
2016,03,29,05,13,3.60
2016,03,29,05,14,3.60
2016,03,29,05,15,3.60
2016,03,29,05,16,3.60
2016,03,29,05,17,3.60
2016,03,29,05,18,3.60
2016,03,29,05,19,3.60
2016,03,29,05,20,3.60
2016,03,29,05,21,3.60
2016,03,29,05,22,3.60
2016,03,29,05,23,3.60
2016,03,29,05,24,3.60
2016,03,29,05,25,3.60
2016,03,29,05,26,3.60
2016,03,29,05,27,3.60
2016,03,29,05,28,3.60
2016,03,29,05,29,3.60
2016,03,29,05,30,3.60
2016,03,29,05,31,3.50
2016,03,29,05,32,3.50
2016,03,29,05,33,3.40
2016,03,29,05,34,3.40
2016,03,29,05,35,3.40
2016,03,29,05,36,3.40
2016,03,29,05,37,3.30
2016,03,29,05,38,3.30
2016,03,29,05,39,3.30
2016,03,29,05,40,3.30
2016,03,29,05,41,3.30
2016,03,29,05,42,3.30
2016,03,29,05,43,3.30
2016,03,29,05,44,3.30
2016,03,29,05,45,3.30
2016,03,29,05,46,3.30
2016,03,29,05,47,3.30
2016,03,29,05,48,3.30
2016,03,29,05,49,3.30
2016,03,29,05,50,3.30
2016,03,29,05,51,3.30
2016,03,29,05,52,3.30
2016,03,29,05,53,3.20
2016,03,29,05,54,3.20
2016,03,29,05,55,3.20
2016,03,29,05,56,3.20
2016,03,29,05,57,3.20
2016,03,29,05,58,3.20
2016,03,29,05,59,3.20
2016,03,29,06,00,3.20
2016,03,29,06,01,3.20
2016,03,29,06,02,3.20
2016,03,29,06,03,3.20
2016,03,29,06,04,3.20
2016,03,29,06,05,3.20
2016,03,29,06,06,3.10
2016,03,29,06,07,3.10
2016,03,29,06,08,3.10
2016,03,29,06,09,3.10
2016,03,29,06,10,3.10
2016,03,29,06,11,3.10
2016,03,29,06,12,3.10
2016,03,29,06,13,3.10
2016,03,29,06,14,3.00
2016,03,29,06,15,3.10
2016,03,29,06,16,3.10
2016,03,29,06,17,3.10
2016,03,29,06,18,3.10
2016,03,29,06,19,3.10
2016,03,29,06,20,3.10
2016,03,29,06,21,3.10
2016,03,29,06,22,3.20
2016,03,29,06,23,3.20
2016,03,29,06,24,3.20
2016,03,29,06,25,3.20
2016,03,29,06,26,3.20
2016,03,29,06,27,3.20
2016,03,29,06,28,3.30
2016,03,29,06,29,3.30
2016,03,29,06,30,3.30
2016,03,29,06,31,3.30
2016,03,29,06,32,3.30
2016,03,29,06,33,3.30
2016,03,29,06,34,3.30
2016,03,29,06,35,3.40
2016,03,29,06,36,3.40
2016,03,29,06,37,3.40
2016,03,29,06,38,3.40
2016,03,29,06,39,3.40
2016,03,29,06,40,3.40
2016,03,29,06,41,3.40
2016,03,29,06,42,3.50
2016,03,29,06,43,3.50
2016,03,29,06,44,3.50
2016,03,29,06,45,3.50
2016,03,29,06,46,3.60
2016,03,29,06,47,3.60
2016,03,29,06,48,3.60
2016,03,29,06,49,3.60
2016,03,29,06,50,3.60
2016,03,29,06,51,3.60
2016,03,29,06,52,3.60
2016,03,29,06,53,3.60
2016,03,29,06,54,3.70
2016,03,29,06,55,3.70
2016,03,29,06,56,3.70
2016,03,29,06,57,3.80
2016,03,29,06,58,3.80
2016,03,29,06,59,3.80
2016,03,29,07,00,3.80
2016,03,29,07,01,3.80
2016,03,29,07,02,3.90
2016,03,29,07,03,3.90
2016,03,29,07,04,3.90
2016,03,29,07,05,3.90
2016,03,29,07,06,3.90
2016,03,29,07,07,4.00
2016,03,29,07,08,4.00
2016,03,29,07,09,4.00
2016,03,29,07,10,4.00
2016,03,29,07,11,4.10
2016,03,29,07,12,4.10
2016,03,29,07,13,4.10
2016,03,29,07,14,4.20
2016,03,29,07,15,4.20
2016,03,29,07,16,4.20
2016,03,29,07,17,4.20
2016,03,29,07,18,4.20
2016,03,29,07,19,4.20
2016,03,29,07,20,4.20
2016,03,29,07,21,4.20
2016,03,29,07,22,4.20
2016,03,29,07,23,4.20
2016,03,29,07,24,4.20
2016,03,29,07,25,4.30
2016,03,29,07,26,4.30
2016,03,29,07,27,4.30
2016,03,29,07,28,4.30
2016,03,29,07,29,4.30
2016,03,29,07,30,4.30
2016,03,29,07,31,4.30
2016,03,29,07,32,4.30
2016,03,29,07,33,4.30
2016,03,29,07,34,4.30
2016,03,29,07,35,4.30
2016,03,29,07,36,4.30
2016,03,29,07,37,4.40
2016,03,29,07,38,4.50
2016,03,29,07,39,4.50
2016,03,29,07,40,4.60
2016,03,29,07,41,4.60
2016,03,29,07,42,4.60
2016,03,29,07,43,4.70
2016,03,29,07,44,4.70
2016,03,29,07,45,4.70
2016,03,29,07,46,4.70
2016,03,29,07,47,4.80
2016,03,29,07,48,4.80
2016,03,29,07,49,4.80
2016,03,29,07,50,4.80
2016,03,29,07,51,4.80
2016,03,29,07,52,4.80
2016,03,29,07,53,4.90
2016,03,29,07,54,4.90
2016,03,29,07,55,5.00
2016,03,29,07,56,5.00
2016,03,29,07,57,5.10
2016,03,29,07,58,5.10
2016,03,29,07,59,5.10
2016,03,29,08,00,5.10
2016,03,29,08,01,5.10
2016,03,29,08,02,5.10
2016,03,29,08,03,5.20
2016,03,29,08,04,5.20
2016,03,29,08,05,5.20
2016,03,29,08,06,5.20
2016,03,29,08,07,5.20
2016,03,29,08,08,5.20
2016,03,29,08,09,5.30
2016,03,29,08,10,5.30
2016,03,29,08,11,5.40
2016,03,29,08,12,5.40
2016,03,29,08,13,5.50
2016,03,29,08,14,5.60
2016,03,29,08,15,5.70
2016,03,29,08,16,5.80
2016,03,29,08,17,5.90
2016,03,29,08,18,6.00
2016,03,29,08,19,6.10
2016,03,29,08,20,6.20
2016,03,29,08,21,6.30
2016,03,29,08,22,6.30
2016,03,29,08,23,6.40
2016,03,29,08,24,6.40
2016,03,29,08,25,6.40
2016,03,29,08,26,6.50
2016,03,29,08,27,6.50
2016,03,29,08,28,6.50
2016,03,29,08,29,6.50
2016,03,29,08,30,6.50
2016,03,29,08,31,6.50
2016,03,29,08,32,6.40
2016,03,29,08,33,6.40
2016,03,29,08,34,6.40
2016,03,29,08,35,6.40
2016,03,29,08,36,6.40
2016,03,29,08,37,6.40
2016,03,29,08,38,6.40
2016,03,29,08,39,6.40
2016,03,29,08,40,6.40
2016,03,29,08,41,6.50
2016,03,29,08,42,6.50
2016,03,29,08,43,6.50
2016,03,29,08,44,6.60
2016,03,29,08,45,6.60
2016,03,29,08,46,6.70
2016,03,29,08,47,6.70
2016,03,29,08,48,6.80
2016,03,29,08,49,6.80
2016,03,29,08,50,6.90
2016,03,29,08,51,6.90
2016,03,29,08,52,7.00
2016,03,29,08,53,7.10
2016,03,29,08,54,7.20
2016,03,29,08,55,7.30
2016,03,29,08,56,7.40
2016,03,29,08,57,7.50
2016,03,29,08,58,7.50
2016,03,29,08,59,7.60
2016,03,29,09,00,7.70
2016,03,29,09,01,7.80
2016,03,29,09,02,7.90
2016,03,29,09,03,8.00
2016,03,29,09,04,8.10
2016,03,29,09,05,8.20
2016,03,29,09,06,8.20
2016,03,29,09,07,8.20
2016,03,29,09,08,8.30
2016,03,29,09,09,8.30
2016,03,29,09,10,8.40
2016,03,29,09,11,8.50
2016,03,29,09,12,8.50
2016,03,29,09,13,8.60
2016,03,29,09,14,8.70
2016,03,29,09,15,8.80
2016,03,29,09,16,8.80
2016,03,29,09,17,8.90
2016,03,29,09,18,8.90
2016,03,29,09,19,9.00
2016,03,29,09,20,9.00
2016,03,29,09,21,9.10
2016,03,29,09,22,9.10
2016,03,29,09,23,9.20
2016,03,29,09,24,9.20
2016,03,29,09,25,9.30
2016,03,29,09,26,9.40
2016,03,29,09,27,9.50
2016,03,29,09,28,9.60
2016,03,29,09,29,9.60
2016,03,29,09,30,9.60
2016,03,29,09,31,9.70
2016,03,29,09,32,9.70
2016,03,29,09,33,9.70
2016,03,29,09,34,9.70
2016,03,29,09,35,9.70
2016,03,29,09,36,9.70
2016,03,29,09,37,9.80
2016,03,29,09,38,9.80
2016,03,29,09,39,9.80
2016,03,29,09,40,9.90
2016,03,29,09,41,9.90
2016,03,29,09,42,10.00
2016,03,29,09,43,10.00
2016,03,29,09,44,10.00
2016,03,29,09,45,10.00
2016,03,29,09,46,10.00
2016,03,29,09,47,10.00
2016,03,29,09,48,10.00
2016,03,29,09,49,10.00
2016,03,29,09,50,10.00
2016,03,29,09,51,10.10
2016,03,29,09,52,10.10
2016,03,29,09,53,10.20
2016,03,29,09,54,10.30
2016,03,29,09,55,10.40
2016,03,29,09,56,10.50
2016,03,29,09,57,10.60
2016,03,29,09,58,10.60
2016,03,29,09,59,10.50
2016,03,29,10,00,10.50
2016,03,29,10,01,10.40
2016,03,29,10,02,10.30
2016,03,29,10,03,10.30
2016,03,29,10,04,10.20
2016,03,29,10,05,10.00
2016,03,29,10,06,9.90
2016,03,29,10,07,9.90
2016,03,29,10,08,9.80
2016,03,29,10,09,9.70
2016,03,29,10,10,9.70
2016,03,29,10,11,9.70
2016,03,29,10,12,9.60
2016,03,29,10,13,9.60
2016,03,29,10,14,9.70
2016,03,29,10,15,9.70
2016,03,29,10,16,9.80
2016,03,29,10,17,9.80
2016,03,29,10,18,9.90
2016,03,29,10,19,10.00
2016,03,29,10,20,10.10
2016,03,29,10,21,10.20
2016,03,29,10,22,10.30
2016,03,29,10,23,10.30
2016,03,29,10,24,10.40
2016,03,29,10,25,10.50
2016,03,29,10,26,10.50
2016,03,29,10,27,10.60
2016,03,29,10,28,10.60
2016,03,29,10,29,10.60
2016,03,29,10,30,10.60
2016,03,29,10,31,10.60
2016,03,29,10,32,10.60
2016,03,29,10,33,10.50
2016,03,29,10,34,10.40
2016,03,29,10,35,10.30
2016,03,29,10,36,10.30
2016,03,29,10,37,10.30
2016,03,29,10,38,10.20
2016,03,29,10,39,10.20
2016,03,29,10,40,10.20
2016,03,29,10,41,10.20
2016,03,29,10,42,10.30
2016,03,29,10,43,10.30
2016,03,29,10,44,10.20
2016,03,29,10,45,10.20
2016,03,29,10,46,10.20
2016,03,29,10,47,10.20
2016,03,29,10,48,10.20
2016,03,29,10,49,10.10
2016,03,29,10,50,10.00
2016,03,29,10,51,10.00
2016,03,29,10,52,9.90
2016,03,29,10,53,9.90
2016,03,29,10,54,9.80
2016,03,29,10,55,9.80
2016,03,29,10,56,9.80
2016,03,29,10,57,9.80
2016,03,29,10,58,9.80
2016,03,29,10,59,9.80
2016,03,29,11,00,9.80
2016,03,29,11,01,9.90
2016,03,29,11,02,9.90
2016,03,29,11,03,9.90
2016,03,29,11,04,9.90
2016,03,29,11,05,9.90
2016,03,29,11,06,9.90
2016,03,29,11,07,9.80
2016,03,29,11,08,9.80
2016,03,29,11,09,9.80
2016,03,29,11,10,9.90
2016,03,29,11,11,9.90
2016,03,29,11,12,9.80
2016,03,29,11,13,9.80
2016,03,29,11,14,9.80
2016,03,29,11,15,9.80
2016,03,29,11,16,9.90
2016,03,29,11,17,9.90
2016,03,29,11,18,10.00
2016,03,29,11,19,10.10
2016,03,29,11,20,10.20
2016,03,29,11,21,10.20
2016,03,29,11,22,10.30
2016,03,29,11,23,10.30
2016,03,29,11,24,10.30
2016,03,29,11,25,10.40
2016,03,29,11,26,10.40
2016,03,29,11,27,10.40
2016,03,29,11,28,10.40
2016,03,29,11,29,10.50
2016,03,29,11,30,10.50
2016,03,29,11,31,10.60
2016,03,29,11,32,10.60
2016,03,29,11,33,10.70
2016,03,29,11,34,10.70
2016,03,29,11,35,10.80
2016,03,29,11,36,10.80
2016,03,29,11,37,10.80
2016,03,29,11,38,10.90
2016,03,29,11,39,11.00
2016,03,29,11,40,11.00
2016,03,29,11,41,11.10
2016,03,29,11,42,11.20
2016,03,29,11,43,11.30
2016,03,29,11,44,11.30
2016,03,29,11,45,11.40
2016,03,29,11,46,11.50
2016,03,29,11,47,11.50
2016,03,29,11,48,11.60
2016,03,29,11,49,11.60
2016,03,29,11,50,11.50
2016,03,29,11,51,11.50
2016,03,29,11,52,11.40
2016,03,29,11,53,11.30
2016,03,29,11,54,11.30
2016,03,29,11,55,11.30
2016,03,29,11,56,11.40
2016,03,29,11,57,11.50
2016,03,29,11,58,11.50
2016,03,29,11,59,11.60
2016,03,29,12,00,11.70
2016,03,29,12,01,11.80
2016,03,29,12,02,11.80
2016,03,29,12,03,11.80
2016,03,29,12,04,11.90
2016,03,29,12,05,11.90
2016,03,29,12,06,11.90
2016,03,29,12,07,11.80
2016,03,29,12,08,11.80
2016,03,29,12,09,11.70
2016,03,29,12,10,11.70
2016,03,29,12,11,11.70
2016,03,29,12,12,11.80
2016,03,29,12,13,11.80
2016,03,29,12,14,11.90
2016,03,29,12,15,12.00
2016,03,29,12,16,12.00
2016,03,29,12,17,12.10
2016,03,29,12,18,12.10
2016,03,29,12,19,12.10
2016,03,29,12,20,12.10
2016,03,29,12,21,12.20
2016,03,29,12,22,12.30
2016,03,29,12,23,12.30
2016,03,29,12,24,12.30
2016,03,29,12,25,12.30
2016,03,29,12,26,12.30
2016,03,29,12,27,12.30
2016,03,29,12,28,12.30
2016,03,29,12,29,12.30
2016,03,29,12,30,12.30
2016,03,29,12,31,12.30
2016,03,29,12,32,12.30
2016,03,29,12,33,12.30
2016,03,29,12,34,12.30
2016,03,29,12,35,12.30
2016,03,29,12,36,12.30
2016,03,29,12,37,12.30
2016,03,29,12,38,12.20
2016,03,29,12,39,12.20
2016,03,29,12,40,12.20
2016,03,29,12,41,12.20
2016,03,29,12,42,12.30
2016,03,29,12,43,12.30
2016,03,29,12,44,12.30
2016,03,29,12,45,12.30
2016,03,29,12,46,12.30
2016,03,29,12,47,12.40
2016,03,29,12,48,12.40
2016,03,29,12,49,12.50
2016,03,29,12,50,12.50
2016,03,29,12,51,12.60
2016,03,29,12,52,12.70
2016,03,29,12,53,12.80
2016,03,29,12,54,12.90
2016,03,29,12,55,13.00
2016,03,29,12,56,13.00
2016,03,29,12,57,13.10
2016,03,29,12,58,13.10
2016,03,29,12,59,13.10
2016,03,29,13,00,13.10
2016,03,29,13,01,13.10
2016,03,29,13,02,13.00
2016,03,29,13,03,12.90
2016,03,29,13,04,12.80
2016,03,29,13,05,12.70
2016,03,29,13,06,12.70
2016,03,29,13,07,12.70
2016,03,29,13,08,12.70
2016,03,29,13,09,12.80
2016,03,29,13,10,13.00
2016,03,29,13,11,13.10
2016,03,29,13,12,13.20
2016,03,29,13,13,13.40
2016,03,29,13,14,13.50
2016,03,29,13,15,13.70
2016,03,29,13,16,13.80
2016,03,29,13,17,13.90
2016,03,29,13,18,13.90
2016,03,29,13,19,13.90
2016,03,29,13,20,13.90
2016,03,29,13,21,13.80
2016,03,29,13,22,13.80
2016,03,29,13,23,13.60
2016,03,29,13,24,13.40
2016,03,29,13,25,13.20
2016,03,29,13,26,13.10
2016,03,29,13,27,13.00
2016,03,29,13,28,13.00
2016,03,29,13,29,12.90
2016,03,29,13,30,12.90
2016,03,29,13,31,12.80
2016,03,29,13,32,12.80
2016,03,29,13,33,12.80
2016,03,29,13,34,12.90
2016,03,29,13,35,12.90
2016,03,29,13,36,12.90
2016,03,29,13,37,13.00
2016,03,29,13,38,13.00
2016,03,29,13,39,13.00
2016,03,29,13,40,13.10
2016,03,29,13,41,13.20
2016,03,29,13,42,13.20
2016,03,29,13,43,13.30
2016,03,29,13,44,13.30
2016,03,29,13,45,13.30
2016,03,29,13,46,13.30
2016,03,29,13,47,13.30
2016,03,29,13,48,13.30
2016,03,29,13,49,13.20
2016,03,29,13,50,13.30
2016,03,29,13,51,13.30
2016,03,29,13,52,13.40
2016,03,29,13,53,13.40
2016,03,29,13,54,13.40
2016,03,29,13,55,13.50
2016,03,29,13,56,13.50
2016,03,29,13,57,13.50
2016,03,29,13,58,13.40
2016,03,29,13,59,13.40
2016,03,29,14,00,13.40
2016,03,29,14,01,13.40
2016,03,29,14,02,13.40
2016,03,29,14,03,13.40
2016,03,29,14,04,13.40
2016,03,29,14,05,13.40
2016,03,29,14,06,13.40
2016,03,29,14,07,13.40
2016,03,29,14,08,13.40
2016,03,29,14,09,13.40
2016,03,29,14,10,13.50
2016,03,29,14,11,13.50
2016,03,29,14,12,13.50
2016,03,29,14,13,13.60
2016,03,29,14,14,13.60
2016,03,29,14,15,13.60
2016,03,29,14,16,13.70
2016,03,29,14,17,13.80
2016,03,29,14,18,13.90
2016,03,29,14,19,14.10
2016,03,29,14,20,14.10
2016,03,29,14,21,14.20
2016,03,29,14,22,14.20
2016,03,29,14,23,14.20
2016,03,29,14,24,14.20
2016,03,29,14,25,14.20
2016,03,29,14,26,14.10
2016,03,29,14,27,14.00
2016,03,29,14,28,13.90
2016,03,29,14,29,13.90
2016,03,29,14,30,13.80
2016,03,29,14,31,13.80
2016,03,29,14,32,13.90
2016,03,29,14,33,13.90
2016,03,29,14,34,13.90
2016,03,29,14,35,13.90
2016,03,29,14,36,14.00
2016,03,29,14,37,14.00
2016,03,29,14,38,14.10
2016,03,29,14,39,14.20
2016,03,29,14,40,14.20
2016,03,29,14,41,14.30
2016,03,29,14,42,14.40
2016,03,29,14,43,14.50
2016,03,29,14,44,14.60
2016,03,29,14,45,14.50
2016,03,29,14,46,14.50
2016,03,29,14,47,14.60
2016,03,29,14,48,14.60
2016,03,29,14,49,14.70
2016,03,29,14,50,14.70
2016,03,29,14,51,14.70
2016,03,29,14,52,14.60
2016,03,29,14,53,14.60
2016,03,29,14,54,14.50
2016,03,29,14,55,14.50
2016,03,29,14,56,14.60
2016,03,29,14,57,14.50
2016,03,29,14,58,14.50
2016,03,29,14,59,14.50
2016,03,29,15,00,14.50
2016,03,29,15,01,14.50
2016,03,29,15,02,14.50
2016,03,29,15,03,14.50
2016,03,29,15,04,14.50
2016,03,29,15,05,14.50
2016,03,29,15,06,14.50
2016,03,29,15,07,14.60
2016,03,29,15,08,14.60
2016,03,29,15,09,14.70
2016,03,29,15,10,14.70
2016,03,29,15,11,14.70
2016,03,29,15,12,14.70
2016,03,29,15,13,14.70
2016,03,29,15,14,14.70
2016,03,29,15,15,14.80
2016,03,29,15,16,14.80
2016,03,29,15,17,14.80
2016,03,29,15,18,14.80
2016,03,29,15,19,14.80
2016,03,29,15,20,14.80
2016,03,29,15,21,14.90
2016,03,29,15,22,14.90
2016,03,29,15,23,14.90
2016,03,29,15,24,14.90
2016,03,29,15,25,14.90
2016,03,29,15,26,14.90
2016,03,29,15,27,15.00
2016,03,29,15,28,15.00
2016,03,29,15,29,15.10
2016,03,29,15,30,15.10
2016,03,29,15,31,15.00
2016,03,29,15,32,15.10
2016,03,29,15,33,15.10
2016,03,29,15,34,15.10
2016,03,29,15,35,15.10
2016,03,29,15,36,15.10
2016,03,29,15,37,15.10
2016,03,29,15,38,15.10
2016,03,29,15,39,15.10
2016,03,29,15,40,15.10
2016,03,29,15,41,15.10
2016,03,29,15,42,15.20
2016,03,29,15,43,15.20
2016,03,29,15,44,15.10
2016,03,29,15,45,15.10
2016,03,29,15,46,15.10
2016,03,29,15,47,15.00
2016,03,29,15,48,15.00
2016,03,29,15,49,15.00
2016,03,29,15,50,15.10
2016,03,29,15,51,15.10
2016,03,29,15,52,15.10
2016,03,29,15,53,15.10
2016,03,29,15,54,15.10
2016,03,29,15,55,15.10
2016,03,29,15,56,15.10
2016,03,29,15,57,15.10
2016,03,29,15,58,15.10
2016,03,29,15,59,15.20
2016,03,29,16,00,15.20
2016,03,29,16,01,15.30
2016,03,29,16,02,15.40
2016,03,29,16,03,15.50
2016,03,29,16,04,15.60
2016,03,29,16,05,15.80
2016,03,29,16,06,15.80
2016,03,29,16,07,15.80
2016,03,29,16,08,15.80
2016,03,29,16,09,15.70
2016,03,29,16,10,15.60
2016,03,29,16,11,15.50
2016,03,29,16,12,15.40
2016,03,29,16,13,15.30
2016,03,29,16,14,15.30
2016,03,29,16,15,15.30
2016,03,29,16,16,15.30
2016,03,29,16,17,15.30
2016,03,29,16,18,15.40
2016,03,29,16,19,15.40
2016,03,29,16,20,15.40
2016,03,29,16,21,15.50
2016,03,29,16,22,15.50
2016,03,29,16,23,15.60
2016,03,29,16,24,15.70
2016,03,29,16,25,15.80
2016,03,29,16,26,15.80
2016,03,29,16,27,15.90
2016,03,29,16,28,15.90
2016,03,29,16,29,15.90
2016,03,29,16,30,15.80
2016,03,29,16,31,15.80
2016,03,29,16,32,15.80
2016,03,29,16,33,15.90
2016,03,29,16,34,15.90
2016,03,29,16,35,15.90
2016,03,29,16,36,15.90
2016,03,29,16,37,15.90
2016,03,29,16,38,15.90
2016,03,29,16,39,15.90
2016,03,29,16,40,15.90
2016,03,29,16,41,15.90
2016,03,29,16,42,15.90
2016,03,29,16,43,15.90
2016,03,29,16,44,15.90
2016,03,29,16,45,15.90
2016,03,29,16,46,16.00
2016,03,29,16,47,16.00
2016,03,29,16,48,16.10
2016,03,29,16,49,16.10
2016,03,29,16,50,16.20
2016,03,29,16,51,16.30
2016,03,29,16,52,16.30
2016,03,29,16,53,16.30
2016,03,29,16,54,16.40
2016,03,29,16,55,16.40
2016,03,29,16,56,16.40
2016,03,29,16,57,16.40
2016,03,29,16,58,16.40
2016,03,29,16,59,16.40
2016,03,29,17,00,16.30
2016,03,29,17,01,16.30
2016,03,29,17,02,16.20
2016,03,29,17,03,16.20
2016,03,29,17,04,16.10
2016,03,29,17,05,16.10
2016,03,29,17,06,16.10
2016,03,29,17,07,16.00
2016,03,29,17,08,16.00
2016,03,29,17,09,16.10
2016,03,29,17,10,16.10
2016,03,29,17,11,16.20
2016,03,29,17,12,16.30
2016,03,29,17,13,16.30
2016,03,29,17,14,16.40
2016,03,29,17,15,16.50
2016,03,29,17,16,16.50
2016,03,29,17,17,16.50
2016,03,29,17,18,16.60
2016,03,29,17,19,16.60
2016,03,29,17,20,16.60
2016,03,29,17,21,16.60
2016,03,29,17,22,16.60
2016,03,29,17,23,16.60
2016,03,29,17,24,16.60
2016,03,29,17,25,16.60
2016,03,29,17,26,16.60
2016,03,29,17,27,16.60
2016,03,29,17,28,16.60
2016,03,29,17,29,16.60
2016,03,29,17,30,16.60
2016,03,29,17,31,16.50
2016,03,29,17,32,16.50
2016,03,29,17,33,16.50
2016,03,29,17,34,16.40
2016,03,29,17,35,16.40
2016,03,29,17,36,16.30
2016,03,29,17,37,16.30
2016,03,29,17,38,16.20
2016,03,29,17,39,16.10
2016,03,29,17,40,16.00
2016,03,29,17,41,16.00
2016,03,29,17,42,15.90
2016,03,29,17,43,16.00
2016,03,29,17,44,16.00
2016,03,29,17,45,16.10
2016,03,29,17,46,16.10